TimeMST,TemperatureF,Dew PointF,Humidity,Sea Level PressureIn,VisibilityMPH,Wind Direction,Wind SpeedMPH,Gust SpeedMPH,PrecipitationIn,Events,Conditions,WindDirDegrees,DateUTC
1:56 AM,12.0,7.0,80,30.34,-9999.0,NW,27.6,36.8,N/A,,Unknown,320,2013-03-05 08:56:00
2:56 AM,10.9,7.0,84,30.39,-9999.0,NW,24.2,35.7,N/A,,Unknown,320,2013-03-05 09:56:00
3:56 AM,10.0,6.1,84,30.41,-9999.0,NNW,21.9,29.9,N/A,,Unknown,330,2013-03-05 10:56:00
4:56 AM,10.0,5.0,80,30.42,-9999.0,NNW,27.6,35.7,N/A,,Unknown,330,2013-03-05 11:56:00
5:56 AM,9.0,5.0,84,30.46,-9999.0,NW,15.0,-,N/A,,Unknown,320,2013-03-05 12:56:00
6:56 AM,10.0,6.1,84,30.47,-9999.0,NNW,13.8,-,N/A,,Unknown,330,2013-03-05 13:56:00
7:56 AM,12.9,8.1,81,30.50,-9999.0,NW,17.3,-,N/A,,Unknown,320,2013-03-05 14:56:00
8:56 AM,14.0,9.0,80,30.51,-9999.0,NW,13.8,21.9,N/A,,Unknown,320,2013-03-05 15:56:00
9:56 AM,16.0,10.0,77,30.51,-9999.0,NW,10.4,-,N/A,,Unknown,320,2013-03-05 16:56:00
10:56 AM,18.0,10.9,74,30.51,-9999.0,NNW,12.7,20.7,N/A,,Unknown,330,2013-03-05 17:56:00
11:56 AM,19.0,12.0,74,30.50,-9999.0,NNW,13.8,-,N/A,,Unknown,340,2013-03-05 18:56:00
12:56 PM,21.0,14.0,74,30.48,-9999.0,North,12.7,-,N/A,,Unknown,350,2013-03-05 19:56:00
1:56 PM,23.0,16.0,74,30.46,-9999.0,North,15.0,-,N/A,,Unknown,360,2013-03-05 20:56:00
2:56 PM,23.0,16.0,74,30.45,-9999.0,NNE,9.2,-,N/A,,Unknown,20,2013-03-05 21:56:00
3:56 PM,23.0,15.1,72,30.45,-9999.0,NE,10.4,-,N/A,,Unknown,50,2013-03-05 22:56:00
4:56 PM,21.0,15.1,78,30.45,-9999.0,ENE,6.9,-,N/A,,Unknown,70,2013-03-05 23:56:00
5:56 PM,18.0,14.0,84,30.45,-9999.0,SE,4.6,-,N/A,,Unknown,130,2013-03-06 00:56:00
6:56 PM,18.0,12.9,81,30.48,-9999.0,ESE,5.8,-,N/A,,Unknown,120,2013-03-06 01:56:00
7:56 PM,16.0,12.9,88,30.45,-9999.0,ESE,5.8,-,N/A,,Unknown,110,2013-03-06 02:56:00
8:56 PM,15.1,12.0,88,30.45,-9999.0,East,6.9,-,N/A,,Unknown,100,2013-03-06 03:56:00
9:56 PM,15.1,12.0,88,30.44,-9999.0,ESE,8.1,-,N/A,,Unknown,110,2013-03-06 04:56:00
10:56 PM,15.1,10.9,84,30.43,-9999.0,SE,11.5,-,N/A,,Unknown,130,2013-03-06 05:56:00
11:56 PM,14.0,10.9,88,30.41,-9999.0,SE,12.7,-,N/A,,Unknown,140,2013-03-06 06:56:00